HUANJING 1A (HJ-1A)

Last updated on Sat Jul 05 2025 00:02:28 GMT+0000 (Coordinated Universal Time)

1 33320U 08041A 25185.64386918 .00000960 00000+0 12479-3 0 9990 2 33320 97.6409 180.8391 0018911 194.9058 165.1601 14.82758797906984
UTC large
Height (km)
Speed (km/s)
/
Latitude / Longitude
Inclination (degrees)
Orbital Period (minutes)
Azimuth
Elevation
Range (km)
Doppler Factor

Next 0 passes for location: London (51.5072 / 0.1276)

Sorry there are no passes over London.